JTC777 KSUU-KDEN

Flight info

Callsign JTC777
Flight time N/A
Altitude 41000
Route BESSA2 ILA DCT LLC DCT SLOWN Q124 BVL J154 TCH DCT KAMPR LONGZ4
Aircraft B772/M-SDE3FGHIRWY/LB1

Departure

Time 2026-05-04 20:59
Airport Travis Air Force Base (KSUU)

Arrival

Time N/A
Airport Denver International Airport (KDEN)
Time Latitude Longitude Altitude Speed Heading
2026-05-04 20:56 38.26729 -121.92827 66 ft 0 kts 141°
2026-05-04 20:57 38.26728 -121.92826 66 ft 0 kts 141°
2026-05-04 20:57 38.26727 -121.92826 58 ft 2 kts 142°
2026-05-04 20:58 38.26618 -121.92839 60 ft 21 kts 205°
2026-05-04 20:58 38.26499 -121.92938 60 ft 15 kts 227°
2026-05-04 20:58 38.26415 -121.92950 63 ft 14 kts 139°
2026-05-04 20:58 38.26332 -121.92920 62 ft 14 kts 211°
2026-05-04 20:59 38.26178 -121.93119 60 ft 69 kts 229°
2026-05-04 20:59 38.25654 -121.93843 120 ft 149 kts 227°
2026-05-04 20:59 38.24888 -121.94881 1168 ft 163 kts 229°
2026-05-04 20:59 38.24153 -121.95959 2297 ft 162 kts 238°
2026-05-04 21:00 38.23842 -121.97420 2661 ft 193 kts 276°
2026-05-04 21:00 38.24485 -121.99030 3036 ft 227 kts 315°
2026-05-04 21:00 38.25964 -122.00033 3414 ft 253 kts 339°
2026-05-04 21:00 38.27689 -122.00655 4297 ft 262 kts 343°
2026-05-04 21:01 38.29472 -122.01264 5202 ft 269 kts 342°
2026-05-04 21:01 38.31287 -122.01936 6150 ft 273 kts 342°
2026-05-04 21:01 38.33113 -122.02665 7062 ft 277 kts 342°
2026-05-04 21:01 38.34957 -122.03447 7981 ft 281 kts 342°
2026-05-04 21:02 38.36796 -122.04261 8994 ft 280 kts 342°
2026-05-04 21:02 38.38637 -122.05098 9936 ft 282 kts 342°
2026-05-04 21:02 38.40447 -122.05934 10515 ft 297 kts 342°
2026-05-04 21:02 38.42485 -122.06884 10842 ft 323 kts 341°
2026-05-04 21:03 38.44631 -122.07895 11642 ft 335 kts 341°
2026-05-04 21:03 38.46845 -122.08946 12743 ft 343 kts 341°
2026-05-04 21:03 38.49099 -122.10018 13994 ft 349 kts 342°
2026-05-04 21:03 38.51384 -122.11106 15152 ft 352 kts 342°
2026-05-04 21:04 38.53685 -122.12204 16408 ft 351 kts 342°
2026-05-04 21:04 38.55947 -122.13287 17852 ft 346 kts 343°
2026-05-04 21:04 38.58178 -122.14250 18738 ft 344 kts 352°
2026-05-04 21:04 38.60571 -122.14349 19356 ft 348 kts 11°
2026-05-04 21:05 38.62991 -122.13760 19904 ft 360 kts 14°
2026-05-04 21:05 38.65483 -122.13117 20705 ft 370 kts 14°
2026-05-04 21:05 38.68028 -122.12466 21648 ft 376 kts 14°
2026-05-04 21:05 38.70611 -122.11812 22688 ft 381 kts 15°
2026-05-04 21:06 38.73238 -122.11152 23615 ft 388 kts 15°
2026-05-04 21:06 38.75922 -122.10482 24297 ft 397 kts 15°
2026-05-04 21:06 38.78656 -122.09802 25153 ft 402 kts 15°
2026-05-04 21:06 38.81409 -122.09120 26050 ft 404 kts 15°
2026-05-04 21:07 38.84182 -122.08434 26852 ft 408 kts 15°
2026-05-04 21:07 38.86987 -122.07739 27547 ft 413 kts 15°
2026-05-04 21:07 38.89827 -122.07034 28223 ft 418 kts 15°
2026-05-04 21:07 38.92695 -122.06321 28928 ft 421 kts 15°
2026-05-04 21:08 38.95583 -122.05603 29619 ft 424 kts 16°
2026-05-04 21:08 38.98476 -122.04884 30277 ft 426 kts 16°
2026-05-04 21:08 39.01405 -122.04153 30775 ft 427 kts 17°
2026-05-04 21:08 39.04207 -122.02974 30991 ft 425 kts 32°
2026-05-04 21:09 39.06588 -122.00752 31346 ft 424 kts 46°
2026-05-04 21:09 39.08542 -121.97911 31806 ft 424 kts 56°
2026-05-04 21:09 39.09958 -121.94597 32198 ft 424 kts 66°
2026-05-04 21:09 39.11095 -121.91072 32525 ft 429 kts 68°
2026-05-04 21:10 39.12211 -121.87490 32871 ft 433 kts 68°
2026-05-04 21:10 39.13330 -121.83881 33237 ft 435 kts 68°
2026-05-04 21:10 39.14463 -121.80249 33652 ft 437 kts 68°
2026-05-04 21:10 39.15219 -121.77847 33894 ft 438 kts 68°
2026-05-04 21:11 39.16373 -121.74205 34235 ft 440 kts 68°
2026-05-04 21:11 39.17540 -121.70544 34535 ft 443 kts 67°
2026-05-04 21:11 39.18719 -121.66862 34811 ft 446 kts 67°
2026-05-04 21:11 39.19906 -121.63160 35124 ft 449 kts 67°
2026-05-04 21:12 39.21104 -121.59422 35436 ft 451 kts 67°
2026-05-04 21:12 39.22306 -121.55671 35762 ft 454 kts 68°
2026-05-04 21:12 39.23513 -121.51895 36038 ft 457 kts 68°
2026-05-04 21:12 39.24729 -121.48088 36310 ft 460 kts 68°
2026-05-04 21:13 39.25947 -121.44265 36605 ft 462 kts 68°
2026-05-04 21:13 39.27173 -121.40413 36898 ft 465 kts 68°
2026-05-04 21:13 39.28403 -121.36543 37179 ft 468 kts 68°
2026-05-04 21:13 39.29643 -121.32638 37472 ft 470 kts 68°
2026-05-04 21:14 39.30882 -121.28726 37755 ft 472 kts 68°
2026-05-04 21:14 39.32128 -121.24787 38030 ft 475 kts 68°
2026-05-04 21:14 39.33379 -121.20829 38309 ft 477 kts 68°
2026-05-04 21:14 39.34638 -121.16840 38587 ft 480 kts 68°
2026-05-04 21:15 39.35896 -121.12845 38871 ft 481 kts 68°
2026-05-04 21:15 39.37144 -121.08891 39169 ft 481 kts 68°
2026-05-04 21:15 39.38406 -121.04886 39419 ft 481 kts 68°
2026-05-04 21:15 39.39670 -121.00867 39671 ft 483 kts 68°
2026-05-04 21:16 39.40934 -120.96837 39922 ft 484 kts 68°
2026-05-04 21:16 39.42196 -120.92802 40134 ft 486 kts 68°
2026-05-04 21:16 39.43463 -120.88745 40370 ft 488 kts 69°
2026-05-04 21:16 39.44734 -120.84667 40657 ft 488 kts 68°
2026-05-04 21:17 39.46003 -120.80590 40898 ft 490 kts 69°
2026-05-04 21:17 39.47282 -120.76475 40940 ft 494 kts 69°
2026-05-04 21:17 39.49840 -120.68229 40959 ft 491 kts 69°
2026-05-04 21:18 39.52364 -120.60070 40942 ft 487 kts 68°
2026-05-04 21:18 39.54864 -120.51938 40951 ft 485 kts 69°
2026-05-04 21:19 39.57352 -120.43789 40935 ft 486 kts 69°
2026-05-04 21:19 39.59848 -120.35631 40913 ft 488 kts 69°
2026-05-04 21:20 39.62360 -120.27419 40895 ft 491 kts 69°
2026-05-04 21:20 39.64876 -120.19169 40915 ft 492 kts 69°
2026-05-04 21:21 39.67398 -120.10868 40878 ft 495 kts 70°
2026-05-04 21:21 39.69899 -120.02611 40851 ft 494 kts 70°
2026-05-04 21:22 39.71152 -119.98464 40958 ft 493 kts 70°
2026-05-04 21:22 39.72404 -119.94314 40944 ft 493 kts 70°
2026-05-04 21:22 39.74900 -119.86021 40958 ft 492 kts 70°
2026-05-04 21:23 39.77386 -119.77735 40935 ft 492 kts 70°
2026-05-04 21:23 39.79881 -119.69392 40903 ft 492 kts 70°
2026-05-04 21:24 39.82360 -119.61080 40874 ft 493 kts 70°
2026-05-04 21:24 39.84819 -119.52809 40815 ft 494 kts 70°
2026-05-04 21:25 39.87307 -119.44413 40808 ft 494 kts 70°
2026-05-04 21:25 39.89760 -119.36107 40798 ft 494 kts 70°
2026-05-04 21:26 39.92225 -119.27737 40800 ft 495 kts 70°
2026-05-04 21:26 39.94684 -119.19361 40789 ft 495 kts 70°
2026-05-04 21:27 39.97135 -119.10985 40783 ft 495 kts 70°
2026-05-04 21:27 39.99581 -119.02600 40785 ft 495 kts 70°
2026-05-04 21:28 40.02022 -118.94204 40785 ft 495 kts 70°
2026-05-04 21:28 40.04455 -118.85808 40809 ft 495 kts 70°
2026-05-04 21:29 40.06888 -118.77386 40826 ft 496 kts 70°
2026-05-04 21:29 40.09317 -118.68951 40772 ft 497 kts 70°
2026-05-04 21:30 40.11744 -118.60498 40767 ft 498 kts 70°
2026-05-04 21:30 40.13860 -118.51903 40769 ft 497 kts 76°
2026-05-04 21:31 40.16586 -118.38792 40771 ft 498 kts 76°
2026-05-04 21:32 40.18404 -118.30046 40766 ft 499 kts 76°
2026-05-04 21:32 40.20243 -118.21280 40766 ft 500 kts 76°
2026-05-04 21:33 40.22082 -118.12512 40770 ft 500 kts 76°
2026-05-04 21:33 40.23915 -118.03731 40758 ft 500 kts 76°
2026-05-04 21:34 40.25740 -117.94941 40771 ft 501 kts 76°
2026-05-04 21:34 40.27561 -117.86139 40770 ft 502 kts 76°
2026-05-04 21:35 40.29385 -117.77311 40765 ft 502 kts 76°
2026-05-04 21:35 40.31212 -117.68466 40772 ft 502 kts 76°
2026-05-04 21:36 40.33020 -117.59619 40767 ft 502 kts 76°
2026-05-04 21:36 40.34816 -117.50770 40766 ft 502 kts 76°
2026-05-04 21:37 40.36609 -117.41904 40754 ft 503 kts 76°
2026-05-04 21:37 40.38396 -117.33037 40765 ft 504 kts 76°
2026-05-04 21:38 40.40181 -117.24141 40760 ft 505 kts 76°
2026-05-04 21:38 40.41962 -117.15224 40776 ft 506 kts 76°
2026-05-04 21:39 40.43741 -117.06282 40799 ft 506 kts 77°
2026-05-04 21:39 40.45515 -116.97324 40812 ft 507 kts 77°
2026-05-04 21:40 40.47283 -116.88352 40826 ft 507 kts 77°
2026-05-04 21:40 40.49046 -116.79370 40826 ft 508 kts 77°
2026-05-04 21:41 40.50805 -116.70364 40810 ft 509 kts 77°
2026-05-04 21:41 40.52547 -116.61398 40795 ft 510 kts 77°
2026-05-04 21:42 40.54306 -116.52295 40765 ft 511 kts 77°
2026-05-04 21:42 40.56043 -116.43282 40747 ft 512 kts 77°
2026-05-04 21:43 40.57252 -116.34068 40746 ft 511 kts 86°
2026-05-04 21:43 40.57934 -116.24770 40742 ft 511 kts 86°
2026-05-04 21:44 40.58596 -116.15454 40743 ft 512 kts 86°
2026-05-04 21:44 40.59287 -116.06116 40747 ft 513 kts 86°
2026-05-04 21:45 40.59990 -115.96770 40754 ft 513 kts 86°
2026-05-04 21:45 40.60690 -115.87402 40750 ft 516 kts 86°
2026-05-04 21:46 40.61384 -115.77973 40763 ft 519 kts 86°
2026-05-04 21:46 40.62071 -115.68501 40766 ft 521 kts 86°
2026-05-04 21:47 40.62753 -115.58999 40766 ft 522 kts 86°
2026-05-04 21:47 40.63431 -115.49477 40776 ft 523 kts 86°
2026-05-04 21:48 40.64100 -115.39938 40743 ft 523 kts 87°
2026-05-04 21:48 40.64759 -115.30440 40766 ft 521 kts 87°
2026-05-04 21:49 40.65408 -115.20919 40769 ft 522 kts 87°
2026-05-04 21:49 40.66052 -115.11379 40763 ft 524 kts 87°
2026-05-04 21:50 40.66692 -115.01814 40755 ft 524 kts 87°
2026-05-04 21:50 40.67323 -114.92246 40763 ft 525 kts 87°
2026-05-04 21:51 40.67841 -114.84283 40757 ft 525 kts 87°
2026-05-04 21:51 40.68457 -114.74710 40737 ft 525 kts 87°
2026-05-04 21:52 40.69064 -114.65130 40753 ft 525 kts 87°
2026-05-04 21:52 40.69663 -114.55536 40755 ft 526 kts 88°
2026-05-04 21:53 40.70224 -114.45933 40774 ft 525 kts 89°
2026-05-04 21:53 40.70583 -114.36322 40786 ft 525 kts 90°
2026-05-04 21:54 40.70894 -114.26699 40809 ft 527 kts 90°
2026-05-04 21:54 40.71226 -114.17055 40846 ft 526 kts 90°
2026-05-04 21:55 40.71565 -114.07402 40848 ft 527 kts 90°
2026-05-04 21:55 40.71897 -113.97744 40838 ft 528 kts 90°
2026-05-04 21:56 40.72217 -113.88076 40831 ft 528 kts 90°
2026-05-04 21:56 40.72531 -113.78410 40805 ft 528 kts 90°
2026-05-04 21:57 40.73071 -113.68743 40757 ft 529 kts 86°
2026-05-04 21:57 40.73852 -113.59084 40714 ft 530 kts 86°
2026-05-04 21:58 40.74631 -113.49479 40711 ft 530 kts 86°
2026-05-04 21:58 40.75372 -113.39805 40713 ft 531 kts 86°
2026-05-04 21:59 40.76093 -113.30118 40713 ft 531 kts 86°
2026-05-04 21:59 40.76801 -113.20415 40707 ft 531 kts 86°
2026-05-04 22:00 40.77503 -113.10703 40700 ft 532 kts 86°
2026-05-04 22:00 40.78197 -113.00984 40714 ft 532 kts 86°
2026-05-04 22:01 40.78876 -112.91257 40706 ft 533 kts 86°
2026-05-04 22:01 40.79548 -112.81503 40702 ft 533 kts 86°